EW9945 Weather Reports


time (UTC)temp
C
wind
direction
speed
KPH
gust
KPH
rain 1hr
cm
rain 24hr
cm
rain mn
cm
humidity
%
barometer
mb
20260507043017 6 295 3.2 11.3 0.00 1.12 0.89 88 1011.9
20260507041523 6 290 1.6 6.4 0.00 1.12 0.89 89 1011.8
20260507040011 7 290 0.0 0.0 0.00 1.12 0.89 88 1011.5
20260507034512 7 290 0.0 4.8 0.00 1.12 0.89 87 1011.2
20260507033010 7 289 0.0 8.0 0.00 1.12 0.89 87 1011.4
20260507031510 7 291 0.0 6.4 0.00 1.12 0.89 88 1011.2
20260507030017 7 312 0.0 1.6 0.00 1.12 0.89 89 1010.9
20260507024514 7 315 4.8 8.0 0.00 1.12 0.89 90 1011.1
20260507023007 7 328 0.0 0.0 0.00 1.12 0.89 91 1011.1
20260507021507 7 328 0.0 1.6 0.00 1.12 0.89 91 1011.0
20260507020005 7 328 0.0 0.0 0.00 1.12 0.89 92 1011.4
20260507014511 7 328 0.0 0.0 0.00 1.12 0.89 92 1011.4
20260507013011 7 328 0.0 0.0 0.00 1.12 0.89 92 1011.2
20260507011505 7 328 0.0 0.0 0.00 1.12 0.89 92 1011.5
20260507010007 7 328 0.0 0.0 0.00 1.12 0.89 92 1011.4
20260507004502 7 328 0.0 0.0 0.00 1.12 0.89 92 1010.8
20260507003001 7 328 0.0 0.0 0.00 1.12 0.89 91 1010.8
20260507001611 7 328 0.0 0.0 0.00 1.12 0.89 91 1010.3
20260507000059 8 328 0.0 0.0 0.00 1.12 0.89 91 1010.1
20260506234600 8 328 0.0 0.0 0.00 1.12 0.89 91 1010.2
20260506233059 8 328 0.0 0.0 0.00 1.12 0.89 91 1009.9
20260506231609 8 328 0.0 0.0 0.00 1.12 0.89 91 1009.8
20260506230111 8 328 0.0 0.0 0.00 1.12 0.89 90 1009.8
20260506224555 8 328 0.0 0.0 0.00 1.12 0.89 91 1009.8
20260506223053 8 328 0.0 0.0 0.00 1.12 0.89 91 1009.5
20260506221610 8 328 0.0 1.6 0.00 1.12 0.89 91 1009.5
20260506220108 8 328 0.0 0.0 0.00 1.12 0.89 91 1009.3
20260506214551 8 328 4.8 11.3 0.00 1.12 0.89 90 1009.2
20260506213105 8 345 1.6 6.4 0.00 1.12 0.89 90 1008.9
20260506211548 8 350 0.0 6.4 0.00 1.12 0.89 89 1008.7
20260506210054 8 350 0.0 8.0 0.00 1.19 0.89 89 1008.6
20260506204546 8 342 3.2 9.7 0.00 1.19 0.89 90 1008.4
20260506203045 8 344 0.0 4.8 0.00 1.19 0.89 90 1008.4
20260506201547 8 344 1.6 11.3 0.00 1.19 0.89 90 1008.1
20260506200043 8 333 3.2 14.5 0.00 1.19 0.89 90 1007.7
20260506194543 8 317 1.6 14.5 0.00 1.19 0.89 90 1007.8
20260506193041 8 5 0.0 12.9 0.00 1.19 0.89 90 1007.6
20260506191540 8 355 1.6 6.4 0.00 1.19 0.89 91 1007.4
20260506190040 8 22 0.0 9.7 0.03 1.37 0.89 92 1007.3
20260506184542 8 9 4.8 16.1 0.03 1.37 0.89 92 1007.3
20260506183039 7 325 9.7 19.3 0.05 1.37 0.89 92 1007.3
20260506181539 7 342 4.8 11.3 0.08 1.37 0.89 92 1007.1
20260506180039 7 339 1.6 11.3 0.05 1.35 0.86 92 1006.8
20260506174536 7 309 8.0 14.5 0.18 1.35 0.86 92 1006.6
20260506173031 8 55 0.0 0.0 0.23 1.32 0.84 92 1006.3
20260506171539 7 55 0.0 0.0 0.20 1.30 0.81 92 1006.1
20260506170033 7 348 0.0 12.9 0.20 1.30 0.81 92 1006.2
20260506164529 7 294 9.7 19.3 0.10 1.19 0.71 91 1006.1
20260506163025 8 332 9.7 17.7 0.00 1.09 0.61 89 1005.8
20260506161520 12 296 8.0 17.7 0.00 1.09 0.61 89 1005.2
20260506160019 13 134 0.0 4.8 0.00 1.09 0.61 91 1004.9
20260506154520 13 134 0.0 4.8 0.00 1.09 0.61 91 1004.8
20260506153016 13 152 0.0 11.3 0.00 1.09 0.61 91 1004.5
20260506151521 13 185 0.0 8.0 0.00 1.09 0.61 91 1004.5
20260506150017 12 135 0.0 11.3 0.00 1.09 0.61 91 1004.4
20260506144516 12 110 1.6 16.1 0.00 1.09 0.61 91 1004.6
20260506143018 12 138 3.2 17.7 0.03 1.09 0.61 91 1004.6
20260506141514 13 128 1.6 16.1 0.05 1.09 0.61 91 1004.2
20260506140017 12 132 4.8 19.3 0.08 1.09 0.61 91 1004.1
20260506134510 12 127 1.6 14.5 0.13 1.09 0.61 91 1004.3
20260506133006 12 123 3.2 20.9 0.15 1.07 0.58 91 1004.4
20260506131507 12 148 0.0 6.4 0.20 1.04 0.56 91 1004.7
20260506130008 12 149 0.0 6.4 0.23 1.02 0.53 91 1004.7
20260506124506 12 155 3.2 16.1 0.23 0.99 0.51 91 1004.6
20260506123006 12 138 1.6 14.5 0.18 0.91 0.43 91 1005.0
20260506121505 12 121 0.0 12.9 0.18 0.86 0.38 91 1005.2
20260506120004 12 133 1.6 17.7 0.13 0.79 0.30 90 1005.2
20260506114508 12 102 4.8 17.7 0.13 0.76 0.28 90 1004.7
20260506113001 12 118 3.2 17.7 0.13 0.71 0.25 90 1004.5
20260506111600 12 123 3.2 14.5 0.10 0.71 0.23 90 1004.5
20260506110058 12 115 3.2 16.1 0.10 0.69 0.20 90 1004.5
20260506104604 12 155 0.0 12.9 0.05 0.64 0.15 90 1004.5
20260506103054 12 109 3.2 12.9 0.08 0.64 0.15 90 1004.6
20260506101552 12 84 1.6 8.0 0.13 0.61 0.13 90 1004.8
20260506100105 12 158 1.6 11.3 0.15 0.66 0.10 90 1004.9
20260506094551 12 117 3.2 8.0 0.15 0.66 0.10 90 1004.7
20260506093048 12 57 0.0 4.8 0.15 0.64 0.08 89 1004.8
20260506091552 12 167 0.0 6.4 0.13 0.56 0.00 88 1004.9
20260506090046 12 162 0.0 8.0 0.13 0.53 0.53 88 1005.2
20260506084545 12 267 0.0 3.2 0.13 0.51 0.51 88 1005.2
20260506083047 12 71 0.0 3.2 0.13 0.48 0.48 88 1005.3
20260506081545 12 175 0.0 12.9 0.13 0.46 0.46 90 1005.5
20260506073043 11 158 0.0 0.0 0.03 0.36 0.36 90 1005.7
20260506071547 11 157 0.0 0.0 0.00 0.33 0.33 90 1005.6
20260506061539 11 158 0.0 3.2 0.00 0.33 0.33 89 1005.9
20260506044540 12 158 0.0 0.0 0.00 0.33 0.33 86 1006.9